CZ-6A DEB

Satellite information

Favourite Embed

Satellite Type and Status

DEBRISIN ORBIT

Key statistics

Satellite CZ-6A DEB at a glance.

Uptime

436

Days in orbit

Revolutions

≈ 14.5

Per day

Orbit

LEO

Low Earth Orbit

Inclination

89.0

Latest

Satellite identification and parameters

Extended collection of information and parameters for CZ-6A DEB.

Object identification

Identified? True

Debris? True

Object name: CZ-6A DEB

International designator: 2024-140PQ

Object number (NORAD): 61122

Object ID (CCSDS): 61122

Country: PEOPLES REPUBLIC OF CHINA (PRC)

Current information (Y/N): Y

RCS size: SMALL

Orbital parameters

Period: 98.97 minutes

Inclination: 89.0204 deg

SMA: 7087.529 km

Apoapsis: 794.827 km

Periapsis: 623.96 km

RAAN: 300.7313 deg

Eccentricy: 0.01205405

Argument of periapsis: 25.4751 deg

Mean anomaly: 335.2332 deg

Mean motion: 14.54991734 rev/day

Mean motion (dot): 0.00003113 rev/day2

B* drag term: 0.0006522708 1/REarth

Two-line elements (TLE)

Creation date: Oct. 16, 2025, 2:37 a.m.

Reference frame: TEME

Reference center: EARTH

Epoch: Oct. 15, 2025, 9:12 p.m. UTC

TLE line 0: 0 CZ-6A DEB

TLE line 1: 1 61122U 24140PQ 25288.88383065 .00003113 00000-0 65227-3 0 9992

TLE line 2: 2 61122 89.0204 300.7313 0120541 25.4751 335.2332 14.54991734 60274

Live tracking on map

Real-time ground track for satellite CZ-6A DEB.

In-orbit conjunctions

A list of the most updated potential collisions computed for object CZ-6A DEB.

Target Orbit TCA Probability of collision Miss distance Type
SACI 1 SSO 2025-08-27 09:11:08 0.0001232871 920.0 (m) PAYLOAD
DELTA 1 DEB SSO 2025-01-18 20:28:43 0.0002204683 215.0 (m) DEBRIS
NOAA 16 DEB SSO 2025-01-15 17:50:37 0.0005272876 113.0 (m) DEBRIS
COSMOS 249 DEB LEO 2024-10-20 12:02:32 0.0002227187 163.0 (m) DEBRIS

Associated space launch

18 Low Earth Orbit communication satellites with Ku, Q and V band payloads for the G60 constellation operated by Shanghai Spacecom Satellite Technology (SSST) with funding backed by the Shanghai local government. Initial constellation will consist of 1296 satellites by 2027 with long term plans to expand it to 12000 satellites.

CZ-6A DEB was lifted into orbit during the mission ‘Long March 6A | G60 Polar Group 01’, on board a Long March 6A space rocket.

The launch took place on Aug. 6, 2024, 6:42 a.m. from Launch Complex 9A.

For more information about the launch, click the button.

Launch to space Long March 6A | G60 Polar Group 01
Long March 6A | G60 Polar Group 01

Agency: N/A

Status: Launch Successful

Launch date: Aug. 6, 2024, 6:42 a.m. UTC

Rocket: Long March 6A

Launch pad: Launch Complex 9A

Location: Taiyuan Satellite Launch Center, People's Republic of China

...

Latest news about this satellite

News about space launch
Brightness of first Chinese broadband constellation satellites alarms astronomers

The first satellites of a Chinese broadband constellation are significantly brighter than those of Western systems, posing a new challenge for astronomers.

News about space launch
Chinese rocket stage breaks up into cloud of more than 700 pieces of space debris

HELSINKI — A Chinese Long March 6A rocket’s upper stage has fragmented into a cloud of over 700 pieces of space debris, adding to concerns about long-term orbital safety. China […]

News about space launch
China's Thousand Sails Megaconstellation Kicks Off with Dangerous Debris Field

China's Thousand Sails Megaconstellation Kicks Off with Dangerous Debris Field


Newsletter sign-up

Weekly statistics, charts and insights to help you stay on top of the space industry.